DW8052 Weather Reports


time (UTC)temp
C
wind
direction
speed
KPH
gust
KPH
rain 1hr
cm
rain 24hr
cm
rain mn
cm
humidity
%
barometer
mb
20260901061719 20 39 14.5 19.3 0.00 0.00 0.00 59 1018.3
20260901061220 20 35 14.5 19.3 0.00 0.00 0.00 61 1018.5
20260901060720 20 39 19.3 20.9 0.00 0.00 0.00 64 1018.6
20260901055720 20 49 16.1 19.3 0.00 0.00 0.00 66 1018.7
20260901055220 20 48 14.5 19.3 0.00 0.00 0.00 66 1018.7
20260901054720 19 39 14.5 16.1 0.00 0.00 0.00 67 1018.8
20260901054220 19 44 19.3 22.5 0.00 0.00 0.00 69 1018.7
20260901053719 19 51 17.7 20.9 0.00 0.00 0.00 69 1018.9
20260901052720 19 46 14.5 25.7 0.00 0.00 0.00 68 1018.9
20260901052220 19 50 19.3 24.1 0.00 0.00 0.00 68 1019.0
20260901051719 19 46 19.3 22.5 0.00 0.00 0.00 68 1019.2
20260901051220 19 49 20.9 27.4 0.00 0.00 0.00 67 1019.2
20260901050720 19 47 22.5 25.7 0.00 0.00 0.00 67 1019.1
20260901050219 19 46 22.5 27.4 0.00 0.00 0.00 66 1019.0
20260901045720 19 45 22.5 25.7 0.00 0.00 0.00 66 1019.0
20260901045220 19 51 22.5 27.4 0.00 0.00 0.00 65 1019.3
20260901044720 19 46 20.9 25.7 0.00 0.00 0.00 65 1019.2
20260901044219 19 51 22.5 27.4 0.00 0.00 0.00 64 1019.3
20260901043719 19 46 22.5 24.1 0.00 0.00 0.00 63 1019.2
20260901043220 19 45 20.9 25.7 0.00 0.00 0.00 65 1019.5
20260901042220 19 46 20.9 27.4 0.00 0.00 0.00 66 1019.5
20260901041719 19 43 22.5 27.4 0.00 0.00 0.00 66 1019.7
20260901041220 19 48 19.3 25.7 0.00 0.00 0.00 66 1019.6
20260901040719 19 48 22.5 27.4 0.00 0.00 0.00 66 1019.8
20260901035720 19 43 20.9 27.4 0.00 0.00 0.00 64 1019.9
20260901035219 18 44 22.5 29.0 0.00 0.00 0.00 66 1019.9
20260901034719 18 51 20.9 29.0 0.00 0.00 0.00 67 1020.0
20260901033719 19 51 22.5 27.4 0.00 0.00 0.00 66 1020.3
20260901033219 19 51 19.3 25.7 0.00 0.00 0.00 66 1020.4
20260901032719 19 47 22.5 27.4 0.00 0.00 0.00 64 1020.4
20260901032220 19 53 24.1 25.7 0.00 0.00 0.00 64 1020.4
20260901031719 19 52 20.9 24.1 0.00 0.00 0.00 63 1020.5
20260901031219 19 58 22.5 24.1 0.00 0.00 0.00 64 1020.6
20260901030720 19 53 16.1 24.1 0.00 0.00 0.00 64 1020.6
20260901025719 19 49 16.1 20.9 0.00 0.00 0.00 63 1020.9
20260901024719 20 67 19.3 20.9 0.00 0.00 0.00 60 1021.1
20260901023219 22 76 11.3 16.1 0.00 0.00 0.00 52 1021.6
20260901022719 22 84 9.7 11.3 0.00 0.00 0.00 49 1021.7
20260901022219 22 82 9.7 12.9 0.00 0.00 0.00 49 1021.9
20260901021719 22 82 8.0 11.3 0.00 0.00 0.00 41 1022.0
20260901021219 22 40 1.6 4.8 0.00 0.00 0.00 45 1022.1
20260901020719 23 69 6.4 9.7 0.00 0.00 0.00 40 1022.1
20260901020219 22 80 1.6 4.8 0.00 0.00 0.00 42 1022.6
20260901015720 22 39 3.2 8.0 0.00 0.00 0.00 41 1022.6
20260901015219 22 64 3.2 12.9 0.00 0.00 0.00 43 1023.0
20260901014719 22 345 4.8 11.3 0.00 0.00 0.00 42 1022.8
20260901014219 22 2 4.8 12.9 0.00 0.00 0.00 42 1023.0
20260901013719 22 13 4.8 11.3 0.00 0.00 0.00 42 1023.2
20260901013219 22 1 3.2 9.7 0.00 0.00 0.00 42 1023.4
20260901012719 21 335 1.6 8.0 0.00 0.00 0.00 44 1023.4
20260901012219 21 324 3.2 9.7 0.00 0.00 0.00 45 1023.8
20260901011720 21 320 3.2 11.3 0.00 0.00 0.00 46 1023.6
20260901011219 21 0 9.7 12.9 0.00 0.00 0.00 44 1023.8
20260901010719 21 326 6.4 11.3 0.00 0.00 0.00 46 1023.9
20260901010219 21 326 6.4 12.9 0.00 0.00 0.00 47 1024.1
20260901005719 20 317 8.0 11.3 0.00 0.00 0.00 49 1024.2
20260901005219 20 326 4.8 8.0 0.00 0.00 0.00 49 1024.4
20260901004719 20 343 4.8 11.3 0.00 0.00 0.00 50 1024.4
20260901004220 19 3 4.8 11.3 0.00 0.00 0.00 51 1024.8
20260901003719 19 335 6.4 14.5 0.00 0.00 0.00 52 1024.7
20260901003219 18 354 9.7 16.1 0.00 0.00 0.00 53 1024.9
20260901002719 18 343 8.0 12.9 0.00 0.00 0.00 54 1025.0
20260901002219 18 346 9.7 14.5 0.00 0.00 0.00 56 1025.0
20260901001719 18 327 8.0 14.5 0.00 0.00 0.00 58 1025.1
20260901001219 17 339 12.9 14.5 0.00 0.00 0.00 58 1025.4
20260901000719 18 344 11.3 19.3 0.00 0.00 0.00 59 1025.5
20260901000219 17 353 8.0 19.3 0.00 0.00 0.00 61 1025.3
20260831235219 17 333 12.9 19.3 0.00 0.00 0.00 62 1025.5
20260831234719 17 338 9.7 19.3 0.00 0.00 0.00 63 1025.7
20260831234219 16 350 12.9 20.9 0.00 0.00 0.00 63 1025.6
20260831233719 16 323 11.3 19.3 0.00 0.00 0.00 65 1025.7
20260831233219 16 343 11.3 19.3 0.00 0.00 0.00 65 1026.0
20260831232219 16 344 16.1 19.3 0.00 0.00 0.00 67 1026.2
20260831231218 15 337 14.5 19.3 0.00 0.00 0.00 69 1026.1
20260831230719 15 323 14.5 20.9 0.00 0.00 0.00 69 1026.2
20260831225719 15 337 9.7 16.1 0.00 0.00 0.00 71 1026.2
20260831225219 15 328 14.5 19.3 0.00 0.00 0.00 71 1026.4
20260831224219 14 329 16.1 20.9 0.00 0.00 0.00 73 1026.6
20260831223719 14 328 16.1 22.5 0.00 0.00 0.00 73 1026.5
20260831223219 14 324 19.3 22.5 0.00 0.00 0.00 73 1026.5
20260831222219 13 323 17.7 25.7 0.00 0.00 0.00 75 1026.8
20260831221219 13 320 19.3 22.5 0.00 0.00 0.00 77 1026.7
20260831220719 13 325 17.7 20.9 0.00 0.00 0.00 78 1026.8
20260831214719 12 324 19.3 22.5 0.00 0.00 0.00 81 1027.0
20260831214218 12 325 14.5 19.3 0.00 0.00 0.00 83 1026.9
20260831212719 12 320 16.1 20.9 0.00 0.00 0.00 85 1026.9
20260831212219 11 320 17.7 22.5 0.00 0.00 0.00 87 1026.9
20260831211719 11 320 19.3 20.9 0.00 0.00 0.00 87 1026.9
20260831211219 11 322 16.1 20.9 0.00 0.00 0.00 87 1026.7
20260831210719 11 325 17.7 20.9 0.00 0.00 0.00 89 1026.6
20260831210218 11 328 16.1 19.3 0.00 0.00 0.00 89 1026.6
20260831205719 11 332 17.7 20.9 0.00 0.00 0.00 89 1026.7
20260831205218 11 334 19.3 20.9 0.00 0.00 0.00 90 1026.5
20260831204719 11 332 17.7 22.5 0.00 0.00 0.00 90 1026.9
20260831204219 11 330 17.7 22.5 0.00 0.00 0.00 90 1026.5
20260831203719 11 331 16.1 19.3 0.00 0.00 0.00 90 1026.7
20260831203218 11 334 16.1 19.3 0.00 0.00 0.00 90 1026.5
20260831202719 11 338 16.1 19.3 0.00 0.00 0.00 90 1026.4
20260831201719 11 340 14.5 19.3 0.00 0.00 0.00 90 1026.3
20260831201219 11 343 14.5 19.3 0.00 0.00 0.00 89 1026.3
20260831200718 11 344 16.1 19.3 0.00 0.00 0.00 89 1026.5
20260831200219 11 342 14.5 19.3 0.00 0.00 0.00 89 1026.3
20260831195719 11 340 14.5 19.3 0.00 0.00 0.00 89 1026.4
20260831195219 11 336 14.5 20.9 0.00 0.00 0.00 89 1026.3
20260831194719 11 332 17.7 20.9 0.00 0.00 0.00 88 1026.5
20260831194219 11 330 19.3 22.5 0.00 0.00 0.00 88 1026.4
20260831193718 11 332 19.3 22.5 0.00 0.00 0.00 88 1026.4
20260831193218 11 331 19.3 22.5 0.00 0.00 0.00 88 1026.3
20260831192719 11 331 19.3 22.5 0.00 0.00 0.00 88 1026.4
20260831192218 11 334 19.3 20.9 0.00 0.00 0.00 88 1026.5
20260831191718 11 332 16.1 20.9 0.00 0.03 0.00 87 1026.5
20260831191218 11 331 17.7 20.9 0.00 0.03 0.00 87 1026.5
20260831190718 11 330 17.7 19.3 0.00 0.03 0.00 87 1026.3
20260831190219 11 326 16.1 19.3 0.00 0.03 0.00 86 1026.4
20260831185219 11 321 16.1 19.3 0.00 0.03 0.00 86 1026.6
20260831184719 11 324 16.1 19.3 0.00 0.03 0.00 86 1026.5
20260831184219 12 325 16.1 19.3 0.00 0.03 0.00 85 1026.6
20260831183718 12 320 16.1 19.3 0.00 0.03 0.00 85 1026.3
20260831183219 12 323 16.1 19.3 0.00 0.03 0.00 85 1026.2
20260831182718 12 326 16.1 19.3 0.00 0.03 0.00 85 1026.2
20260831182218 12 321 19.3 19.3 0.00 0.03 0.00 84 1026.4
20260831181718 12 319 19.3 19.3 0.00 0.03 0.00 84 1026.4
20260831181219 12 316 19.3 20.9 0.00 0.03 0.00 84 1026.5
20260831180718 12 315 20.9 20.9 0.00 0.03 0.00 84 1026.5
20260831180218 12 314 19.3 20.9 0.00 0.03 0.00 83 1026.5
20260831175718 12 317 20.9 20.9 0.00 0.03 0.00 83 1026.3
20260831175218 12 317 20.9 20.9 0.00 0.03 0.00 82 1026.4
20260831174718 12 321 19.3 22.5 0.00 0.03 0.00 82 1026.4
20260831173719 12 315 20.9 22.5 0.00 0.03 0.00 80 1026.4
20260831173219 13 319 20.9 22.5 0.00 0.03 0.00 80 1026.5
20260831172718 13 317 22.5 22.5 0.00 0.03 0.00 80 1026.5
20260831172218 13 314 20.9 20.9 0.00 0.03 0.00 79 1026.5
20260831171719 13 314 20.9 20.9 0.00 0.03 0.00 80 1026.6
20260831171218 13 314 20.9 20.9 0.00 0.03 0.00 80 1026.5
20260831170719 13 315 20.9 20.9 0.00 0.03 0.00 80 1026.6
20260831170218 13 313 19.3 20.9 0.00 0.03 0.00 79 1026.6
20260831165718 13 313 19.3 20.9 0.00 0.03 0.00 79 1026.6
20260831165218 13 311 19.3 20.9 0.00 0.03 0.00 79 1026.7
20260831164719 13 312 19.3 19.3 0.00 0.03 0.00 79 1026.7
20260831164218 13 308 19.3 20.9 0.00 0.03 0.00 79 1027.0
20260831163718 13 312 19.3 19.3 0.00 0.03 0.00 79 1027.0
20260831163218 13 316 19.3 19.3 0.00 0.03 0.00 79 1026.9
20260831162218 13 321 16.1 19.3 0.00 0.03 0.00 78 1027.2
20260831161718 13 324 16.1 16.1 0.00 0.03 0.00 78 1027.1
20260831161218 13 324 16.1 19.3 0.00 0.03 0.00 77 1027.4
20260831160718 13 324 14.5 16.1 0.00 0.03 0.00 77 1027.6
20260831160218 13 324 14.5 16.1 0.00 0.03 0.00 77 1027.5
20260831155718 13 325 14.5 16.1 0.00 0.03 0.00 76 1027.5
20260831155218 13 326 14.5 16.1 0.00 0.03 0.00 76 1027.6
20260831154718 13 328 14.5 16.1 0.00 0.03 0.00 75 1027.6
20260831153718 14 327 14.5 14.5 0.00 0.03 0.00 75 1027.8
20260831153218 14 327 14.5 16.1 0.00 0.03 0.00 74 1027.9
20260831152718 14 326 14.5 14.5 0.00 0.03 0.00 73 1027.9
20260831152218 14 329 14.5 16.1 0.00 0.03 0.00 72 1027.9
20260831151218 14 329 12.9 14.5 0.00 0.03 0.00 72 1028.2
20260831150718 14 333 12.9 14.5 0.00 0.03 0.00 72 1028.2
20260831150218 14 329 12.9 14.5 0.00 0.03 0.00 72 1028.2
20260831145718 14 325 14.5 14.5 0.00 0.03 0.00 72 1028.4
20260831145218 14 323 12.9 14.5 0.00 0.03 0.00 72 1028.2
20260831144718 14 319 12.9 14.5 0.00 0.03 0.00 72 1028.3
20260831144217 15 318 11.3 12.9 0.00 0.03 0.00 71 1028.3
20260831143718 15 322 11.3 12.9 0.00 0.03 0.00 71 1028.3
20260831143218 15 322 12.9 12.9 0.00 0.03 0.00 71 1028.3
20260831142728 15 318 12.9 14.5 0.00 0.03 0.00 71 1028.5
20260831141718 15 318 12.9 12.9 0.00 0.03 0.00 71 1028.5
20260831141217 15 317 11.3 12.9 0.00 0.03 0.00 71 1028.5
20260831140718 15 312 11.3 11.3 0.00 0.03 0.00 70 1028.6
20260831140218 15 320 11.3 11.3 0.00 0.03 0.00 69 1028.7
20260831134718 15 338 11.3 11.3 0.00 0.03 0.03 69 1028.6
20260831134218 15 338 9.7 11.3 0.00 0.03 0.03 69 1028.8
20260831133718 15 338 9.7 11.3 0.00 0.03 0.03 69 1028.7
20260831133218 15 338 9.7 11.3 0.00 0.03 0.03 69 1028.7
20260831132718 15 338 9.7 11.3 0.00 0.03 0.03 68 1028.7
20260831132218 15 337 9.7 11.3 0.00 0.03 0.03 69 1028.8
20260831131718 15 337 9.7 12.9 0.00 0.03 0.03 68 1028.9
20260831131217 15 340 11.3 14.5 0.00 0.03 0.03 69 1028.9
20260831130718 15 343 11.3 14.5 0.00 0.03 0.03 69 1029.1
20260831130218 15 337 11.3 12.9 0.00 0.03 0.03 69 1029.2
20260831125218 15 334 12.9 14.5 0.00 0.03 0.03 69 1029.1
20260831124217 16 332 11.3 14.5 0.00 0.03 0.03 70 1029.1
20260831123717 16 335 11.3 14.5 0.00 0.03 0.03 69 1029.3
20260831123218 16 332 11.3 12.9 0.00 0.03 0.03 69 1029.2
20260831122717 16 338 11.3 16.1 0.00 0.03 0.03 69 1029.2
20260831122218 15 340 12.9 14.5 0.00 0.03 0.03 69 1029.2
20260831121718 15 336 12.9 14.5 0.00 0.03 0.03 70 1029.4
20260831121217 15 322 11.3 12.9 0.00 0.03 0.03 71 1029.3
20260831115718 15 304 9.7 11.3 0.00 0.03 0.03 77 1029.3
20260831115217 15 297 8.0 11.3 0.00 0.03 0.03 78 1029.5
20260831114718 15 287 8.0 9.7 0.00 0.03 0.03 79 1029.6
20260831113717 16 291 8.0 8.0 0.00 0.03 0.03 78 1029.6
20260831113217 16 333 4.8 4.8 0.00 0.03 0.03 78 1029.6
20260831112218 16 339 8.0 9.7 0.00 0.03 0.03 77 1029.4
20260831111718 16 348 8.0 11.3 0.00 0.03 0.03 77 1029.5
20260831110717 16 1 12.9 16.1 0.00 0.03 0.03 77 1029.6
20260831110218 16 1 14.5 16.1 0.00 0.03 0.03 77 1029.6
20260831105718 16 1 14.5 19.3 0.00 0.03 0.03 77 1029.7
20260831105217 16 3 14.5 19.3 0.00 0.03 0.03 78 1029.5
20260831104217 16 1 14.5 19.3 0.00 0.03 0.03 79 1029.6
20260831103717 16 2 14.5 19.3 0.00 0.03 0.03 80 1029.7
20260831103217 16 1 14.5 16.1 0.00 0.03 0.03 80 1029.6
20260831102717 16 3 14.5 19.3 0.00 0.03 0.03 80 1029.9
20260831102217 16 4 12.9 16.1 0.00 0.03 0.03 81 1029.5
20260831101717 16 2 11.3 16.1 0.00 0.03 0.03 81 1029.7
20260831101217 16 1 11.3 14.5 0.00 0.03 0.03 81 1029.6
20260831100217 16 8 9.7 14.5 0.00 0.03 0.03 81 1029.6
20260831095717 16 1 11.3 14.5 0.00 0.03 0.03 81 1029.7
20260831095217 16 1 12.9 19.3 0.00 0.03 0.03 81 1029.6
20260831094717 16 3 11.3 14.5 0.00 0.03 0.03 81 1029.6
20260831094217 16 3 14.5 19.3 0.00 0.03 0.03 81 1029.4
20260831093717 16 0 11.3 16.1 0.00 0.03 0.03 81 1029.6
20260831093217 16 0 9.7 12.9 0.00 0.03 0.03 80 1029.5
20260831092717 16 11 9.7 14.5 0.00 0.03 0.03 80 1029.4
20260831091717 16 12 9.7 16.1 0.00 0.03 0.03 80 1029.4
20260831091217 16 12 11.3 19.3 0.00 0.03 0.03 80 1029.4
20260831085717 16 12 9.7 12.9 0.00 0.03 0.03 79 1029.4
20260831085217 16 18 9.7 14.5 0.00 0.03 0.03 80 1029.2
20260831084717 16 13 9.7 14.5 0.00 0.03 0.03 80 1029.2
20260831083718 16 15 9.7 16.1 0.00 0.03 0.03 80 1029.3
20260831083218 16 16 8.0 12.9 0.00 0.03 0.03 80 1029.4
20260831082717 16 18 11.3 14.5 0.00 0.03 0.03 80 1029.2
20260831082217 16 23 9.7 16.1 0.00 0.03 0.03 80 1029.1
20260831081217 16 25 11.3 14.5 0.00 0.03 0.03 78 1029.1
20260831075717 16 24 11.3 19.3 0.00 0.03 0.03 77 1029.0
20260831075217 16 31 16.1 19.3 0.00 0.03 0.03 76 1029.0
20260831074717 16 34 16.1 20.9 0.00 0.03 0.03 75 1029.0
20260831074217 16 30 14.5 20.9 0.00 0.03 0.03 74 1028.9
20260831073717 17 37 19.3 20.9 0.00 0.03 0.03 73 1029.0
20260831073217 17 42 17.7 19.3 0.00 0.03 0.03 72 1029.0
20260831072717 17 40 16.1 19.3 0.00 0.03 0.03 72 1028.9
20260831072217 17 40 11.3 14.5 0.00 0.03 0.03 72 1029.0
20260831071217 17 50 11.3 19.3 0.00 0.03 0.03 71 1029.0
20260831065717 17 41 19.3 20.9 0.00 0.03 0.03 70 1029.0
20260831065217 17 43 16.1 20.9 0.00 0.03 0.03 71 1028.9
20260831064717 17 39 16.1 20.9 0.00 0.03 0.03 70 1028.9
20260831063716 17 32 19.3 20.9 0.00 0.03 0.03 68 1028.8
20260831062717 17 45 16.1 20.9 0.00 0.03 0.03 69 1028.7
20260831062217 17 43 16.1 20.9 0.00 0.03 0.03 66 1028.6